[[[{"header":{"parameterUnit":"kt","parameterCategory":2,"dx":1,"dy":1,"la1":30.253999710083008,"la2":30.299108505249023,"lo1":-89.0895004272461,"lo2":-89.04439544677734,"nx":28,"ny":28,"refTime":"2022-10-17T21:00:00:Z","depth":0,"parameterNumber":1,"parameterNumberName":"U-component_of_WINDS"},"data":[1.0851,1.0814,1.0815,1.0773,1.0766,1.0737,1.0726,1.0713,1.0702,1.0666,1.0646,1.0642,1.063,1.0604,1.0581,1.0579,1.0568,1.0556,1.0556,1.0613,1.0621,1.0628,1.0637,1.0554,1.0554,1.0495,1.0495,1.0494,1.0897,1.0891,1.0869,1.0847,1.0828,1.0842,1.0825,1.0808,1.078,1.0766,1.0745,1.0713,1.0687,1.0679,1.0653,1.0635,1.0638,1.0628,1.0628,1.0625,1.0687,1.0697,1.0626,1.0626,1.0626,1.0626,1.0626,1.0626,1.0981,1.0958,1.0946,1.0921,1.091,1.0896,1.0873,1.0869,1.0846,1.082,1.0824,1.0792,1.0777,1.0744,1.0733,1.0708,1.0718,1.0706,1.0702,1.0699,1.0695,1.078,1.0703,1.0703,1.0704,1.0704,1.0704,0,1.1041,1.1044,1.1021,1.1,1.0982,1.0964,1.0948,1.0934,1.0936,1.0916,1.0888,1.0871,1.0838,1.081,1.0785,1.0775,1.0782,1.0783,1.0775,1.0771,1.0773,1.0771,1.0871,1.0785,1.0785,1.0786,1.0786,1.0786,1.1124,1.1098,1.1084,1.1068,1.1059,1.1033,1.1018,1.1021,1.1004,1.0984,1.0962,1.0935,1.0913,1.0865,1.0857,1.083,1.0833,1.0801,1.0829,1.0829,1.0831,1.0832,1.0829,1.0794,1.0793,1.0792,1.0791,0,1.1171,1.1171,1.1129,1.1117,1.1113,1.1084,1.1073,1.1049,1.1046,1.1013,1.1005,1.0999,1.097,1.0967,1.0931,1.093,1.0882,1.0886,1.0888,1.0888,1.0858,1.086,1.076,1.0747,1.0835,1.0834,1.0834,0,1.124,1.1204,1.1206,1.1181,1.1142,1.1146,1.1106,1.1099,1.1085,1.1059,1.1069,1.1044,1.1044,1.1018,1.1016,1.0976,1.0969,1.0965,1.0964,1.0963,1.0963,1.0951,1.0954,1.0966,1.0966,1.0967,1.0967,0,1.1311,1.127,1.123,1.122,1.1202,1.1183,1.1174,1.1158,1.1142,1.112,1.1109,1.1083,1.1068,1.1048,1.1045,1.1065,1.0996,1.1022,1.0992,1.0992,1.0974,1.0974,1.089,1.0968,1.0968,1.0968,1.0968,0,1.1366,1.1345,1.1288,1.1273,1.1262,1.1235,1.121,1.1187,1.1169,1.1166,1.1149,1.1153,1.1118,1.1144,1.1096,1.1122,1.1106,1.11,1.1097,1.1091,1.112,1.1071,1.0993,1.0983,1.109,1.1091,1.1092,0,1.1447,1.1389,1.1391,1.1336,1.1309,1.1322,1.1292,1.1276,1.1269,1.1244,1.1237,1.1207,1.1226,1.1216,1.1193,1.1182,1.1149,1.1187,1.1148,1.1146,1.1151,1.108,1.1068,1.1011,1.1105,1.1104,1.1103,0,1.1509,1.1487,1.1477,1.1465,1.1444,1.142,1.1386,1.1358,1.1341,1.1321,1.1291,1.125,1.1262,1.1244,1.1244,1.122,1.1172,1.1235,1.1234,1.1223,1.1111,1.1101,1.1091,1.1177,1.1176,1.1174,1.1113,0,1.159,1.156,1.1533,1.1506,1.1487,1.1452,1.1448,1.1429,1.1432,1.1425,1.1382,1.1364,1.1333,1.1321,1.1322,1.1268,1.1276,1.1288,1.131,1.1264,1.1244,1.1235,1.1342,1.1342,1.1343,1.1343,0,0,1.1666,1.1623,1.1625,1.1593,1.1576,1.1589,1.1551,1.1537,1.1506,1.1494,1.1508,1.1445,1.1429,1.1376,1.1361,1.1348,1.1338,1.1353,1.1287,1.128,1.1274,1.1253,1.1244,1.1344,1.1345,1.1345,1.1345,0,1.1694,1.1682,1.1646,1.1631,1.161,1.1605,1.1596,1.1576,1.1569,1.1526,1.1534,1.1507,1.1456,1.1438,1.1422,1.1361,1.1366,1.1352,1.132,1.1292,1.1285,1.1279,1.1256,1.1248,1.1346,1.1346,1.1346,0,1.1754,1.174,1.1722,1.1687,1.1672,1.1642,1.1666,1.1633,1.161,1.1621,1.1578,1.1567,1.1542,1.1492,1.147,1.148,1.1393,1.1419,1.1415,1.1411,1.1384,1.1376,1.1368,1.1466,1.1466,1.1467,0,0,1.1778,1.175,1.1734,1.1692,1.1682,1.1674,1.1657,1.1657,1.1636,1.1627,1.1612,1.159,1.156,1.154,1.1511,1.1458,1.1452,1.1434,1.1428,1.1424,1.1417,1.1389,1.138,1.1469,1.1469,1.1469,0,0,1.1789,1.177,1.1776,1.1726,1.1707,1.1687,1.1661,1.1667,1.1641,1.1644,1.164,1.1634,1.1588,1.1575,1.1599,1.1519,1.1541,1.1535,1.1528,1.1521,1.1515,1.1518,1.1618,0,0,0,0,0,1.1814,1.1773,1.1779,1.177,1.1723,1.1684,1.1678,1.1675,1.1692,1.1672,1.166,1.1668,1.1588,1.1609,1.1599,1.1571,1.1491,1.1487,1.1483,1.1461,1.1453,1.1447,0,0,0,0,0,0,1.1811,1.18,1.178,1.1758,1.1747,1.1686,1.1714,1.1712,1.1694,1.1697,1.167,1.1667,1.1662,1.1614,1.1605,1.1578,1.1621,1.1489,1.1486,1.1483,1.1458,1.1452,1.1447,0,0,0,0,0,1.1808,1.1799,1.1725,1.1759,1.1749,1.1736,1.1715,1.1714,1.17,1.1682,1.1679,1.17,1.1662,1.1654,1.1608,1.1583,1.1627,1.1624,1.1487,1.1484,1.1482,1.1455,0,0,0,0,0,0,1.1806,1.1797,1.1723,1.172,1.1774,1.1739,1.1734,1.1716,1.1686,1.1683,1.1711,1.1713,1.1661,1.1655,1.1649,1.1584,1.1632,1.1629,1.1627,1.1485,1.1483,1.1481,0,0,0,0,0,0,1.1801,1.1794,1.1721,1.1741,1.174,1.1742,1.1738,1.1698,1.1685,1.1717,1.1718,1.1713,1.1669,1.1655,1.165,1.1588,1.1636,1.1633,1.1631,1.1629,1.1483,1.1482,0,0,0,0,0,0,1.1798,1.1792,1.1742,1.1741,1.174,1.1707,1.1707,1.1658,1.1705,1.1718,1.1709,1.171,1.1669,1.1664,1.1652,1.1591,1.1589,1.1636,1.1634,1.1632,1.1631,0,0,0,0,0,0,0,1.1796,1.1839,1.1741,1.1741,1.1741,1.1692,1.1691,1.1691,1.1705,1.1707,1.1708,1.171,1.1655,1.1651,1.1647,1.1594,0,0,1.1636,1.1635,0,0,0,0,0,0,0,0,1.1842,1.184,1.174,1.174,1.1739,1.1692,1.1691,1.1691,1.1705,1.1707,1.1708,1.1709,1.1654,1.1651,1.1648,0,0,0,0,0,0,0,0,0,0,0,0,0,0,0,1.174,1.174,0,1.1692,1.1692,1.1691,1.1705,1.1706,1.1708,1.1708,1.1653,1.1651,1.1648,0,0,0,0,0,0,0,0,0,0,0,0,0,0,0,0,0,0,0,0,0,0,0,0,0,0,0,0,0,0,0,0,0,0,0,0,0,0,0,0,0,0,0,0,0,0,0,0,0,0,0,0,0,0,0,0,0,0,0,0,0,0,0,0,0,0,0,0,0]}],[{"header":{"parameterUnit":"kt","parameterCategory":2,"dx":1,"dy":1,"la1":30.253999710083008,"la2":30.299108505249023,"lo1":-89.0895004272461,"lo2":-89.04439544677734,"nx":28,"ny":28,"refTime":"2022-10-17T21:00:00:Z","depth":0,"parameterNumber":2,"parameterNumberName":"V-component_of_WINDS"},"data":[-16.1819,-16.2092,-16.2094,-16.2403,-16.2456,-16.2666,-16.2741,-16.2836,-16.2911,-16.3158,-16.3299,-16.3323,-16.3393,-16.3557,-16.3706,-16.3711,-16.3775,-16.3873,-16.3862,-16.3429,-16.3369,-16.3311,-16.3248,-16.3887,-16.3888,-16.4311,-16.4315,-16.4318,-16.1504,-16.156,-16.1725,-16.1884,-16.2024,-16.193,-16.2046,-16.2168,-16.2357,-16.2451,-16.2589,-16.2805,-16.2972,-16.3009,-16.3168,-16.3291,-16.3253,-16.3334,-16.3324,-16.3336,-16.2874,-16.2807,-16.3362,-16.3362,-16.3362,-16.3362,-16.3362,-16.3362,-16.0929,-16.1093,-16.1189,-16.1367,-16.1446,-16.1551,-16.1705,-16.1732,-16.1889,-16.206,-16.2024,-16.2236,-16.2325,-16.2514,-16.2575,-16.2737,-16.2645,-16.2731,-16.2753,-16.2775,-16.2801,-16.2191,-16.2763,-16.2761,-16.276,-16.2759,-16.2758,0,-16.0508,-16.0498,-16.0654,-16.0812,-16.0941,-16.1061,-16.117,-16.1265,-16.1234,-16.1365,-16.1553,-16.166,-16.1869,-16.2042,-16.2189,-16.2234,-16.2144,-16.2134,-16.2193,-16.2214,-16.2215,-16.2218,-16.1463,-16.2117,-16.2111,-16.2107,-16.2104,-16.2102,-15.9928,-16.0118,-16.0217,-16.0327,-16.0386,-16.0564,-16.0668,-16.0627,-16.0739,-16.0864,-16.1008,-16.1182,-16.1319,-16.1615,-16.1637,-16.1791,-16.1748,-16.1999,-16.177,-16.1784,-16.1752,-16.1741,-16.1759,-16.2043,-16.2051,-16.2057,-16.2062,0,-15.9601,-15.9598,-15.9892,-15.9968,-15.9993,-16.0194,-16.0257,-16.0416,-16.0421,-16.064,-16.0688,-16.0696,-16.0879,-16.086,-16.1063,-16.1047,-16.1371,-16.1325,-16.1341,-16.133,-16.1552,-16.1532,-16.2277,-16.2372,-16.1709,-16.1715,-16.1721,0,-15.9104,-15.9355,-15.9334,-15.9505,-15.9781,-15.9732,-16.0006,-16.0038,-16.0114,-16.0286,-16.0182,-16.0345,-16.0294,-16.0454,-16.043,-16.0692,-16.0729,-16.0732,-16.0723,-16.0742,-16.0742,-16.0797,-16.0766,-16.0694,-16.069,-16.0687,-16.0684,0,-15.8593,-15.8874,-15.9151,-15.9214,-15.9319,-15.9449,-15.9498,-15.9582,-15.9683,-15.9811,-15.9875,-16.0027,-16.0109,-16.0226,-16.0195,-16.0041,-16.0514,-16.0295,-16.0516,-16.0518,-16.0621,-16.0615,-16.1281,-16.0679,-16.0678,-16.0677,-16.0675,0,-15.8189,-15.8324,-15.8726,-15.881,-15.8885,-15.9066,-15.9214,-15.9364,-15.946,-15.9457,-15.9557,-15.9484,-15.9711,-15.9496,-15.9807,-15.9615,-15.9702,-15.9725,-15.974,-15.9758,-15.9517,-15.9895,-16.0532,-16.0597,-15.9776,-15.9769,-15.9762,0,-15.7605,-15.8009,-15.797,-15.8352,-15.8535,-15.8407,-15.8606,-15.8694,-15.8708,-15.8862,-15.8874,-15.9049,-15.8885,-15.8936,-15.9093,-15.9112,-15.9361,-15.9078,-15.9296,-15.9305,-15.9276,-15.9862,-15.9961,-16.0395,-15.9666,-15.9676,-15.9683,0,-15.7151,-15.7277,-15.7348,-15.7417,-15.7527,-15.7679,-15.7908,-15.8073,-15.8178,-15.8287,-15.8476,-15.8721,-15.8607,-15.8693,-15.8648,-15.8813,-15.9191,-15.8667,-15.8668,-15.8762,-15.9616,-15.9709,-15.9783,-15.9124,-15.9135,-15.9145,-15.9607,0,-15.6543,-15.6743,-15.6934,-15.709,-15.7204,-15.7441,-15.7422,-15.7544,-15.749,-15.7498,-15.7775,-15.7839,-15.8002,-15.8079,-15.8027,-15.841,-15.8342,-15.8217,-15.8004,-15.8389,-15.8541,-15.8603,-15.778,-15.7774,-15.7768,-15.7764,0,0,-15.5985,-15.6271,-15.6219,-15.644,-15.6533,-15.6395,-15.665,-15.6723,-15.6874,-15.694,-15.6822,-15.7178,-15.7234,-15.7572,-15.769,-15.7756,-15.7822,-15.7687,-15.8206,-15.8256,-15.8301,-15.8464,-15.8529,-15.7754,-15.7752,-15.775,-15.7749,0,-15.5758,-15.5825,-15.6079,-15.6153,-15.6262,-15.6257,-15.6319,-15.64,-15.6416,-15.6687,-15.6566,-15.6728,-15.7013,-15.7089,-15.7165,-15.7647,-15.7544,-15.7698,-15.7966,-15.8153,-15.8209,-15.8259,-15.8431,-15.8493,-15.7736,-15.7736,-15.7737,0,-15.5307,-15.537,-15.549,-15.5695,-15.5764,-15.5954,-15.5728,-15.5938,-15.6078,-15.591,-15.6181,-15.6213,-15.6312,-15.6634,-15.6777,-15.6673,-15.7293,-15.7093,-15.7126,-15.7141,-15.732,-15.7389,-15.7449,-15.665,-15.6646,-15.6643,0,0,-15.5114,-15.5299,-15.535,-15.5645,-15.5697,-15.5693,-15.5792,-15.5748,-15.5842,-15.588,-15.5918,-15.6012,-15.6175,-15.6285,-15.6437,-15.6794,-15.6809,-15.696,-15.7011,-15.7053,-15.7091,-15.7282,-15.7349,-15.6629,-15.6629,-15.6628,0,0,-15.502,-15.5091,-15.5021,-15.5362,-15.5457,-15.5524,-15.5704,-15.5618,-15.5754,-15.5724,-15.5656,-15.5678,-15.5977,-15.6013,-15.583,-15.636,-15.6151,-15.6194,-15.6326,-15.6391,-15.6441,-15.6426,-15.5603,0,0,0,0,0,-15.4778,-15.5082,-15.5019,-15.5073,-15.5329,-15.556,-15.5592,-15.5545,-15.5398,-15.5542,-15.556,-15.5444,-15.59,-15.5737,-15.579,-15.5994,-15.645,-15.6482,-15.6512,-15.6767,-15.6834,-15.6891,0,0,0,0,0,0,-15.4799,-15.4865,-15.501,-15.5091,-15.5147,-15.5549,-15.5289,-15.5285,-15.5382,-15.5356,-15.5444,-15.5446,-15.5408,-15.5706,-15.5755,-15.595,-15.5587,-15.6463,-15.6489,-15.6514,-15.679,-15.6845,-15.6892,0,0,0,0,0,-15.4815,-15.4868,-15.5293,-15.5086,-15.5135,-15.5146,-15.5277,-15.5272,-15.5345,-15.5374,-15.5372,-15.5301,-15.5415,-15.5452,-15.5735,-15.5929,-15.5553,-15.5571,-15.648,-15.6501,-15.652,-15.6817,0,0,0,0,0,0,-15.4827,-15.4864,-15.5302,-15.5315,-15.4967,-15.5122,-15.5145,-15.5261,-15.5355,-15.5358,-15.5226,-15.5205,-15.5424,-15.5451,-15.548,-15.5925,-15.5525,-15.5544,-15.5556,-15.6496,-15.6513,-15.6528,0,0,0,0,0,0,-15.4834,-15.4876,-15.5309,-15.5162,-15.5157,-15.5101,-15.5122,-15.5353,-15.5358,-15.5201,-15.5186,-15.5215,-15.5378,-15.5452,-15.5474,-15.5838,-15.5504,-15.5522,-15.5534,-15.5542,-15.651,-15.6523,0,0,0,0,0,0,-15.4851,-15.4886,-15.5157,-15.5155,-15.515,-15.5295,-15.5304,-15.5569,-15.5236,-15.5199,-15.5205,-15.519,-15.5383,-15.5403,-15.5471,-15.5826,-15.5835,-15.5505,-15.5517,-15.5525,-15.5531,0,0,0,0,0,0,0,-15.4864,-15.4638,-15.5224,-15.5149,-15.5145,-15.5437,-15.5441,-15.5444,-15.5233,-15.522,-15.5208,-15.5196,-15.5403,-15.5422,-15.5442,-15.5816,0,0,-15.5503,-15.5512,0,0,0,0,0,0,0,0,-15.4622,-15.4634,-15.5225,-15.5227,-15.523,-15.5438,-15.5441,-15.5444,-15.5231,-15.5221,-15.5211,-15.5201,-15.5408,-15.5424,-15.544,0,0,0,0,0,0,0,0,0,0,0,0,0,0,0,-15.5225,-15.5227,0,-15.5438,-15.5441,-15.5443,-15.5229,-15.5221,-15.5213,-15.5205,-15.5412,-15.5425,-15.5439,0,0,0,0,0,0,0,0,0,0,0,0,0,0,0,0,0,0,0,0,0,0,0,0,0,0,0,0,0,0,0,0,0,0,0,0,0,0,0,0,0,0,0,0,0,0,0,0,0,0,0,0,0,0,0,0,0,0,0,0,0,0,0,0,0,0,0,0,0]}]]]